Location: Enikep?du
(16.5133°N, 80.7066°E)
Time: 06:42:26
(UTC+00:00)

NOSS 3-4 (A) - Pass Details

Date: 20 January 2020
Orbit: 901 x 1312 km, 63.4° (Epoch: 06 February)

Event Time Altitude Azimuth Distance (km) Brightness Sun altitude
Rises 00:23:03 0° 223° (SW) 3,548 6.2 -11.3°
Reaches altitude 10° 00:25:46 10° 232° (SW) 2,583 5.4 -10.7°
Maximum altitude 00:31:11 37° 298° (WNW) 1,374 3.8 -9.4°
Drops below altitude 10° 00:36:39 10° 4° (N) 2,599 5.6 -8.2°
Sets 00:39:25 0° 13° (NNE) 3,572 6.4 -7.6°
